Simultaneous Nadir Overpasses (SNOs) Predictions

Prediction of SNOs between METOP-C and LANDSAT-8 Satellite Orbit:

Table of predicted SNOs for the next 14.0 days since TLE Epoch: 5/2/2020
Index Date (METOP-C) Time (METOP-C) Lat,Lon (METOP-C) SZA (METOP-C ) Date (LANDSAT-8) Time (LANDSAT-8) Lat,Lon (LANDSAT-8) SZA (LANDSAT-8 ) Distance(km) Time Diff (sec)
1 05/04/2020 09:33:37 81.04, 74.36 66.90 05/04/2020 09:34:31 81.05, 74.54 66.94 3.25 54
2 05/04/2020 10:24:15 -81.08,-117.31 112.99 05/04/2020 10:23:57 -81.07,-117.47 113.02 2.86 18
3 05/07/2020 05:08:00 81.04, 140.73 66.11 05/07/2020 05:08:45 81.03, 140.78 66.13 0.95 45
4 05/07/2020 05:58:39 -81.06, -51.25 113.81 05/07/2020 05:58:11 -81.06, -51.20 113.82 0.86 28
5 05/10/2020 00:42:22 81.05,-152.54 65.41 05/10/2020 00:42:58 81.04,-152.64 65.41 1.77 36
6 05/10/2020 01:33:00 -81.08, 15.54 114.50 05/10/2020 01:32:23 -81.07, 15.39 114.54 2.67 37
7 05/12/2020 20:16:44 81.05, -86.20 64.69 05/12/2020 20:17:10 81.05, -86.09 64.72 1.88 26
8 05/12/2020 21:07:23 -81.08, 81.95 115.21 05/12/2020 21:06:36 -81.08, 81.96 115.23 0.26 47
9 05/15/2020 15:51:06 81.06, -19.49 64.07 05/15/2020 15:51:23 81.06, -19.57 64.06 1.48 17




NCC Satellite Simultaneous Nadir Overpasses (SNOs) Prediction Service
